When you browse on this site, cookies collect data to enhance your experience and personalize the content and advertising you see.
Visit our Privacy Policy to learn more. By continuing to use the site, you agree to this use of cookies and data.
  • In Hungary
  • List of Countries
  • For 7 days
  • Water Temperature
  • Weather Map
  • News
  • Weather Widgets
  • user-avatar
    Login

    Hourly Weather Goncharovka

    Today, 20 October, Sunday

    Time Temperature Precipitation Wind Pressure Humidity
    00:00 +12°C° 0 mm 2 mps 746 mmHg 84%
    01:00 +10°C° 0 mm 3 mps 746 mmHg 85%
    02:00 +10°C° 0 mm 3 mps 746 mmHg 87%
    03:00 +10°C° 0 mm 3 mps 746 mmHg 88%
    04:00 +10°C° 0 mm 2 mps 746 mmHg 89%
    05:00 +10°C° 0 mm 2 mps 746 mmHg 91%
    06:00 +10°C° 0 mm 3 mps 746 mmHg 89%
    07:00 +11°C° 0 mm 3 mps 747 mmHg 87%
    08:00 +12°C° 0 mm 3 mps 747 mmHg 86%
    09:00 +13°C° 0 mm 3 mps 747 mmHg 80%
    10:00 +14°C° 0 mm 3 mps 747 mmHg 74%
    11:00 +15°C° 0 mm 4 mps 747 mmHg 68%
    12:00 +17°C° 0 mm 4 mps 747 mmHg 66%
    13:00 +17°C° 0 mm 4 mps 747 mmHg 63%
    14:00 +18°C° 0 mm 4 mps 747 mmHg 62%
    15:00 +17°C° 0 mm 3 mps 747 mmHg 68%
    16:00 +16°C° 0 mm 3 mps 747 mmHg 74%
    17:00 +13°C° 0 mm 3 mps 746 mmHg 80%
    18:00 +13°C° 0 mm 3 mps 747 mmHg 81%
    19:00 +12°C° 0 mm 3 mps 747 mmHg 82%
    20:00 +12°C° 0 mm 3 mps 747 mmHg 83%
    21:00 +11°C° 0 mm 3 mps 747 mmHg 84%
    22:00 +11°C° 0 mm 3 mps 747 mmHg 84%
    23:00 +11°C° 0 mm 3 mps 747 mmHg 84%

    Tomorrow, 21 October, Monday

    Time Temperature Precipitation Wind Pressure Humidity
    00:00 +10°C° 0 mm 3 mps 747 mmHg 84%
    01:00 +10°C° 0 mm 3 mps 747 mmHg 84%
    02:00 +10°C° 0 mm 3 mps 747 mmHg 85%
    03:00 +9°C° 0 mm 3 mps 747 mmHg 84%
    04:00 +9°C° 0 mm 3 mps 747 mmHg 84%
    05:00 +9°C° 0 mm 3 mps 746 mmHg 84%
    06:00 +8°C° 0 mm 4 mps 747 mmHg 81%
    07:00 +10°C° 0 mm 4 mps 747 mmHg 77%
    08:00 +11°C° 0 mm 4 mps 747 mmHg 74%
    09:00 +12°C° 0 mm 5 mps 747 mmHg 70%
    10:00 +13°C° 0 mm 5 mps 747 mmHg 67%
    11:00 +14°C° 0 mm 5 mps 746 mmHg 63%
    12:00 +15°C° 0 mm 5 mps 746 mmHg 63%
    13:00 +15°C° 0 mm 5 mps 746 mmHg 62%
    14:00 +16°C° 0 mm 5 mps 746 mmHg 61%
    15:00 +15°C° 0 mm 5 mps 746 mmHg 66%
    16:00 +14°C° 0 mm 4 mps 746 mmHg 70%
    17:00 +13°C° 0 mm 4 mps 745 mmHg 75%
    18:00 +12°C° 0 mm 4 mps 745 mmHg 77%
    19:00 +12°C° 0 mm 3 mps 745 mmHg 79%
    20:00 +12°C° 0 mm 3 mps 746 mmHg 81%
    21:00 +11°C° 0 mm 3 mps 746 mmHg 83%
    22:00 +11°C° 0 mm 3 mps 745 mmHg 86%
    23:00 +12°C° 0 mm 2 mps 745 mmHg 88%

    Day after tomorrow, 22 October, Tuesday

    Time Temperature Precipitation Wind Pressure Humidity
    00:00 +10°C° 0 mm 2 mps 746 mmHg 89%
    01:00 +10°C° 0 mm 2 mps 746 mmHg 91%
    02:00 +10°C° 0 mm 2 mps 746 mmHg 92%
    03:00 +10°C° 0 mm 2 mps 746 mmHg 93%
    04:00 +11°C° 0 mm 1 mps 746 mmHg 93%
    05:00 +11°C° 0 mm 1 mps 746 mmHg 94%
    06:00 +11°C° 0 mm 1 mps 747 mmHg 94%
    07:00 +12°C° 0 mm 1 mps 747 mmHg 93%
    08:00 +12°C° 0 mm 1 mps 747 mmHg 92%
    09:00 +13°C° 0 mm 2 mps 748 mmHg 87%
    10:00 +14°C° 0 mm 2 mps 748 mmHg 82%
    11:00 +16°C° 0 mm 2 mps 748 mmHg 77%
    12:00 +16°C° 0 mm 1 mps 748 mmHg 75%
    13:00 +16°C° 0 mm 1 mps 748 mmHg 73%
    14:00 +18°C° 0 mm 1 mps 748 mmHg 70%
    15:00 +16°C° 0 mm 1 mps 748 mmHg 73%
    16:00 +15°C° 0 mm 1 mps 748 mmHg 76%
    17:00 +14°C° 0 mm 0 mps 748 mmHg 78%
    18:00 +14°C° 0 mm 1 mps 748 mmHg 81%
    19:00 +13°C° 0 mm 1 mps 748 mmHg 83%
    20:00 +13°C° 0 mm 1 mps 748 mmHg 85%
    21:00 +13°C° 0 mm 1 mps 748 mmHg 86%
    22:00 +12°C° 0 mm 1 mps 748 mmHg 88%
    23:00 +12°C° 0 mm 1 mps 748 mmHg 90%

    23 October, Wednesday

    Time Temperature Precipitation Wind Pressure Humidity
    00:00 +10°C° 0 mm 2 mps 748 mmHg 91%
    01:00 +10°C° 0 mm 2 mps 748 mmHg 92%
    02:00 +10°C° 0 mm 3 mps 748 mmHg 93%
    03:00 +10°C° 0 mm 3 mps 747 mmHg 93%
    04:00 +10°C° 0 mm 3 mps 747 mmHg 94%
    05:00 +10°C° 0 mm 3 mps 747 mmHg 95%
    06:00 +10°C° 0 mm 3 mps 747 mmHg 94%
    07:00 +12°C° 0 mm 2 mps 747 mmHg 92%
    08:00 +12°C° 0 mm 2 mps 747 mmHg 91%
    09:00 +12°C° 0 mm 3 mps 747 mmHg 86%
    10:00 +14°C° 0 mm 3 mps 746 mmHg 80%
    11:00 +15°C° 0 mm 4 mps 746 mmHg 74%
    12:00 +17°C° 0 mm 4 mps 746 mmHg 73%
    13:00 +17°C° 0 mm 4 mps 746 mmHg 71%
    14:00 +18°C° 0 mm 4 mps 745 mmHg 69%
    15:00 +17°C° 0 mm 4 mps 745 mmHg 75%
    16:00 +14°C° 0 mm 3 mps 745 mmHg 80%
    17:00 +13°C° 0 mm 3 mps 744 mmHg 85%
    18:00 +13°C° 0 mm 3 mps 744 mmHg 86%
    19:00 +12°C° 0 mm 3 mps 744 mmHg 87%
    20:00 +12°C° 0 mm 3 mps 744 mmHg 88%
    21:00 +12°C° 0 mm 3 mps 744 mmHg 88%
    22:00 +12°C° 0 mm 3 mps 744 mmHg 89%
    23:00 +13°C° 0 mm 2 mps 744 mmHg 89%

    24 October, Thursday

    Time Temperature Precipitation Wind Pressure Humidity
    00:00 +12°C° 0 mm 2 mps 744 mmHg 90%
    01:00 +12°C° 0 mm 2 mps 744 mmHg 90%
    02:00 +12°C° 0 mm 2 mps 744 mmHg 91%
    03:00 +12°C° 0.3 mm 2 mps 743 mmHg 92%
    04:00 +12°C° 0.3 mm 1 mps 743 mmHg 93%
    05:00 +12°C° 0.3 mm 1 mps 743 mmHg 94%
    06:00 +12°C° 0.2 mm 1 mps 743 mmHg 94%
    07:00 +12°C° 0.2 mm 1 mps 743 mmHg 93%
    08:00 +12°C° 0.2 mm 0 mps 744 mmHg 93%
    09:00 +12°C° 0 mm 0 mps 744 mmHg 90%
    10:00 +13°C° 0 mm 0 mps 744 mmHg 87%
    11:00 +13°C° 0 mm 0 mps 744 mmHg 85%
    12:00 +14°C° 0 mm 0 mps 744 mmHg 84%
    13:00 +15°C° 0 mm 1 mps 744 mmHg 83%
    14:00 +15°C° 0 mm 1 mps 744 mmHg 82%
    15:00 +14°C° 0 mm 1 mps 744 mmHg 85%
    16:00 +14°C° 0 mm 1 mps 744 mmHg 88%
    17:00 +13°C° 0 mm 2 mps 744 mmHg 91%
    18:00 +13°C° 0 mm 2 mps 744 mmHg 92%
    19:00 +13°C° 0 mm 2 mps 745 mmHg 92%
    20:00 +12°C° 0 mm 2 mps 745 mmHg 93%
    21:00 +12°C° 0 mm 2 mps 745 mmHg 94%
    22:00 +10°C° 0 mm 2 mps 745 mmHg 94%
    23:00 +11°C° 0 mm 1 mps 745 mmHg 94%

    25 October, Friday

    Time Temperature Precipitation Wind Pressure Humidity
    00:00 +11°C° 0 mm 1 mps 745 mmHg 94%
    01:00 +11°C° 0 mm 1 mps 745 mmHg 94%
    02:00 +10°C° 0 mm 1 mps 745 mmHg 94%
    03:00 +10°C° 0 mm 1 mps 745 mmHg 94%
    04:00 +9°C° 0 mm 2 mps 745 mmHg 94%
    05:00 +9°C° 0 mm 2 mps 745 mmHg 94%
    06:00 +9°C° 0 mm 2 mps 746 mmHg 93%
    07:00 +9°C° 0 mm 2 mps 746 mmHg 91%
    08:00 +10°C° 0 mm 2 mps 746 mmHg 90%
    09:00 +12°C° 0 mm 2 mps 746 mmHg 84%
    10:00 +14°C° 0 mm 2 mps 746 mmHg 78%
    11:00 +14°C° 0 mm 3 mps 746 mmHg 71%
    12:00 +14°C° 0 mm 3 mps 746 mmHg 70%
    13:00 +16°C° 0 mm 3 mps 746 mmHg 68%
    14:00 +16°C° 0 mm 3 mps 746 mmHg 66%
    15:00 +15°C° 0 mm 2 mps 746 mmHg 71%
    16:00 +14°C° 0 mm 2 mps 746 mmHg 75%
    17:00 +13°C° 0 mm 2 mps 746 mmHg 79%
    18:00 +12°C° 0 mm 2 mps 746 mmHg 79%
    19:00 +12°C° 0 mm 2 mps 746 mmHg 79%
    20:00 +10°C° 0 mm 2 mps 746 mmHg 79%
    21:00 +10°C° 0 mm 2 mps 746 mmHg 80%
    22:00 +10°C° 0 mm 2 mps 746 mmHg 81%
    23:00 +9°C° 0 mm 2 mps 746 mmHg 82%
    Show more